User: anonymous   Login
Location: The Rolnick Observatory
(41.1711°N, 73.3275°W)
Time: 19:04:18
(UTC-04:00)
Language:

Envisat - Orbit

View from above orbital plane
View from above orbital plane
View from above satellite
View from above satellite

Ground track
Ground track

The orbit data is extracted from the following two-line orbital elements,

1 27386U 02009A   19078.60333170  .00000003  00000-0  14664-4 0  9993
2 27386  98.1581 104.2482 0001385  98.3156  67.0982 14.37943663893109
Epoch (UTC): 19 March 2019 14:28:47
Eccentricity: 0.0001385
inclination: 98.1581°
perigee height: 764 km
apogee height: 766 km
right ascension of ascending node: 104.2482°
argument of perigee: 98.3156°
revolutions per day: 14.37943663
mean anomaly at epoch: 67.0982°
orbit number at epoch: 89310

The dashed part of the orbit path shows where the satellite is in the earth's shadow,  

DLR